WIF170 ENBR-ENOV

Flight info

Callsign WIF170
Flight time 0h 28m
Altitude 17000
Route OLDAS DCT TUMIM
Aircraft DH8B/M-SDFGR/S

Departure

Time 2026-05-01 13:59
Airport Bergen Airport, Flesland (ENBR)

Arrival

Time 2026-05-01 14:28
Airport Ørsta-Volda Airport, Hovden (ENOV)
Time Latitude Longitude Altitude Speed Heading
2026-05-01 13:54 60.29083 5.22871 173 ft 0 kts 47°
2026-05-01 13:57 60.29085 5.22874 173 ft 0 kts 31°
2026-05-01 13:57 60.29077 5.22855 173 ft 7 kts 177°
2026-05-01 13:57 60.29061 5.22860 172 ft 0 kts 164°
2026-05-01 13:58 60.29049 5.22783 172 ft 17 kts 271°
2026-05-01 13:58 60.29042 5.22533 172 ft 19 kts 262°
2026-05-01 13:58 60.28972 5.22376 171 ft 17 kts 190°
2026-05-01 13:58 60.28921 5.22157 163 ft 22 kts 259°
2026-05-01 13:59 60.28894 5.21965 160 ft 4 kts 175°
2026-05-01 13:59 60.28727 5.22022 158 ft 77 kts 170°
2026-05-01 13:59 60.27949 5.22279 294 ft 138 kts 171°
2026-05-01 13:59 60.26948 5.22631 916 ft 152 kts 175°
2026-05-01 14:00 60.25886 5.22923 1640 ft 155 kts 173°
2026-05-01 14:00 60.24839 5.22774 2356 ft 157 kts 205°
2026-05-01 14:00 60.23994 5.21326 3116 ft 164 kts 225°
2026-05-01 14:00 60.23452 5.19255 3866 ft 170 kts 244°
2026-05-01 14:01 60.23317 5.16835 4544 ft 187 kts 270°
2026-05-01 14:01 60.23858 5.14306 5067 ft 210 kts 301°
2026-05-01 14:01 60.25076 5.12609 5579 ft 225 kts 336°
2026-05-01 14:01 60.26663 5.12529 6121 ft 234 kts
2026-05-01 14:02 60.28270 5.12790 6654 ft 230 kts 350°
2026-05-01 14:02 60.29851 5.12554 7168 ft 226 kts 350°
2026-05-01 14:02 60.31427 5.12588 7652 ft 230 kts 357°
2026-05-01 14:02 60.33038 5.12806 8152 ft 231 kts 355°
2026-05-01 14:03 60.34659 5.12877 8675 ft 233 kts 352°
2026-05-01 14:03 60.36304 5.12899 9225 ft 238 kts 354°
2026-05-01 14:03 60.37954 5.13053 9768 ft 241 kts 354°
2026-05-01 14:03 60.39634 5.13142 10285 ft 242 kts 352°
2026-05-01 14:04 60.41332 5.13210 10779 ft 245 kts 353°
2026-05-01 14:04 60.43019 5.13350 11271 ft 246 kts 353°
2026-05-01 14:04 60.44736 5.13422 11780 ft 247 kts 351°
2026-05-01 14:04 60.46462 5.13515 12293 ft 250 kts 353°
2026-05-01 14:05 60.48205 5.13655 12794 ft 250 kts 352°
2026-05-01 14:05 60.49950 5.13721 13325 ft 251 kts 351°
2026-05-01 14:05 60.51680 5.13827 13853 ft 253 kts 352°
2026-05-01 14:05 60.53448 5.13954 14341 ft 254 kts 351°
2026-05-01 14:06 60.55225 5.14028 14822 ft 256 kts 351°
2026-05-01 14:06 60.57028 5.14163 15302 ft 259 kts 352°
2026-05-01 14:06 60.58815 5.14259 15797 ft 260 kts 351°
2026-05-01 14:06 60.60643 5.14339 16296 ft 263 kts 352°
2026-05-01 14:07 60.62490 5.14486 16810 ft 265 kts 352°
2026-05-01 14:07 60.64331 5.14570 17141 ft 274 kts 351°
2026-05-01 14:07 60.66312 5.14664 17191 ft 293 kts 352°
2026-05-01 14:08 60.70561 5.14945 17202 ft 313 kts 352°
2026-05-01 14:08 60.72767 5.15061 17202 ft 319 kts 353°
2026-05-01 14:08 60.74984 5.15211 17201 ft 324 kts 353°
2026-05-01 14:08 60.77258 5.15347 17193 ft 326 kts 352°
2026-05-01 14:09 60.79542 5.15469 17190 ft 328 kts 353°
2026-05-01 14:09 60.81801 5.15620 17187 ft 329 kts 353°
2026-05-01 14:09 60.84114 5.15753 17180 ft 330 kts 352°
2026-05-01 14:09 60.86383 5.15866 17179 ft 331 kts 353°
2026-05-01 14:10 60.88695 5.16039 17159 ft 331 kts 353°
2026-05-01 14:10 60.91011 5.16170 17166 ft 331 kts 352°
2026-05-01 14:10 60.93276 5.16376 17163 ft 329 kts 353°
2026-05-01 14:10 60.95565 5.16438 17163 ft 328 kts 351°
2026-05-01 14:11 60.97861 5.16508 17162 ft 328 kts 353°
2026-05-01 14:11 61.02390 5.16865 17154 ft 327 kts 351°
2026-05-01 14:11 61.04684 5.16930 17155 ft 328 kts 353°
2026-05-01 14:12 61.06951 5.17315 17147 ft 336 kts
2026-05-01 14:12 61.09160 5.19188 17142 ft 351 kts 27°
2026-05-01 14:12 61.11216 5.21967 17149 ft 351 kts 26°
2026-05-01 14:12 61.13346 5.24434 17144 ft 349 kts 20°
2026-05-01 14:13 61.15528 5.26649 17148 ft 349 kts 20°
2026-05-01 14:13 61.16939 5.28168 17146 ft 351 kts 23°
2026-05-01 14:13 61.19784 5.31559 17149 ft 352 kts 25°
2026-05-01 14:13 61.21907 5.33991 17148 ft 350 kts 21°
2026-05-01 14:14 61.24067 5.36342 17159 ft 351 kts 22°
2026-05-01 14:14 61.26207 5.38828 17141 ft 351 kts 24°
2026-05-01 14:14 61.28317 5.41285 17143 ft 351 kts 22°
2026-05-01 14:14 61.30484 5.43648 17138 ft 351 kts 22°
2026-05-01 14:15 61.32618 5.46149 17141 ft 350 kts 25°
2026-05-01 14:15 61.34703 5.48638 17133 ft 348 kts 21°
2026-05-01 14:15 61.36852 5.50957 17121 ft 346 kts 21°
2026-05-01 14:15 61.38971 5.53419 17129 ft 349 kts 24°
2026-05-01 14:16 61.41065 5.55909 17131 ft 350 kts 22°
2026-05-01 14:16 61.43233 5.58310 17134 ft 350 kts 22°
2026-05-01 14:16 61.45347 5.60774 17137 ft 351 kts 24°
2026-05-01 14:16 61.47473 5.63313 17099 ft 350 kts 22°
2026-05-01 14:17 61.49607 5.65681 17127 ft 350 kts 21°
2026-05-01 14:17 61.51732 5.68183 17135 ft 352 kts 24°
2026-05-01 14:17 61.53876 5.70747 17126 ft 352 kts 22°
2026-05-01 14:17 61.56047 5.73171 17132 ft 352 kts 21°
2026-05-01 14:18 61.58176 5.75674 17127 ft 354 kts 24°
2026-05-01 14:18 61.60321 5.78251 17130 ft 352 kts 22°
2026-05-01 14:18 61.62452 5.80645 17118 ft 350 kts 22°
2026-05-01 14:18 61.63864 5.82320 17088 ft 352 kts 24°
2026-05-01 14:19 61.66724 5.85748 17070 ft 351 kts 22°
2026-05-01 14:19 61.68944 5.87604 17081 ft 337 kts
2026-05-01 14:19 61.71201 5.87872 17075 ft 324 kts 349°
2026-05-01 14:19 61.73491 5.88141 16930 ft 332 kts
2026-05-01 14:20 61.75718 5.89378 16542 ft 328 kts
2026-05-01 14:20 61.79993 5.91485 15992 ft 309 kts
2026-05-01 14:20 61.82101 5.92219 15719 ft 305 kts 360°
2026-05-01 14:21 61.84191 5.93009 15445 ft 306 kts
2026-05-01 14:21 61.86272 5.93989 15177 ft 304 kts
2026-05-01 14:21 61.88340 5.94848 14949 ft 301 kts
2026-05-01 14:22 61.92347 5.96543 13941 ft 292 kts
2026-05-01 14:22 61.94338 5.97361 13385 ft 290 kts
2026-05-01 14:22 61.96326 5.98146 12835 ft 290 kts
2026-05-01 14:22 61.98291 5.99051 12096 ft 288 kts
2026-05-01 14:23 62.00175 5.99857 11324 ft 264 kts
2026-05-01 14:23 62.01931 6.00542 10543 ft 250 kts
2026-05-01 14:23 62.03638 6.00931 9733 ft 245 kts 355°
2026-05-01 14:23 62.05321 6.01045 8880 ft 238 kts 353°
2026-05-01 14:24 62.06978 6.01149 8046 ft 237 kts 353°
2026-05-01 14:24 62.08581 6.01211 7293 ft 232 kts 353°
2026-05-01 14:24 62.10216 6.01249 6510 ft 234 kts 352°
2026-05-01 14:24 62.11828 6.01272 5563 ft 233 kts 348°
2026-05-01 14:25 62.13362 6.00537 4847 ft 217 kts 333°
2026-05-01 14:25 62.14785 5.99490 4009 ft 214 kts 330°
2026-05-01 14:25 62.16259 5.99078 3424 ft 218 kts
2026-05-01 14:25 62.17609 6.00356 2830 ft 217 kts 42°
2026-05-01 14:26 62.18723 6.02453 2261 ft 207 kts 38°
2026-05-01 14:26 62.20339 6.06818 1643 ft 170 kts 72°
2026-05-01 14:26 62.20477 6.09029 1713 ft 140 kts 105°
2026-05-01 14:27 62.20095 6.10760 1606 ft 121 kts 148°
2026-05-01 14:27 62.19368 6.11359 1395 ft 112 kts 189°
2026-05-01 14:27 62.18728 6.10485 822 ft 120 kts 235°
2026-05-01 14:28 62.17984 6.07334 247 ft 109 kts 242°
2026-05-01 14:28 62.17797 6.06633 248 ft 12 kts 242°
2026-05-01 14:28 62.17780 6.06565 248 ft 5 kts 87°
2026-05-01 14:28 62.17825 6.06739 248 ft 20 kts 60°
2026-05-01 14:29 62.17908 6.07047 245 ft 27 kts 61°
2026-05-01 14:29 62.17998 6.07392 246 ft 26 kts 61°
2026-05-01 14:30 62.18038 6.07987 246 ft 5 kts 68°
2026-05-01 14:30 62.18040 6.07993 246 ft 0 kts 57°